Location: Silent Lake
(44.9206°N, 78.0708°W)
Time: 04:02:33
(UTC-04:00)

Daily predictions for brighter satellites

Satellite Brightness Start Highest point End
(mag) Time Altitude Azimuth Time Altitude Azimuth Time Altitude Azimuth
SL-16 R/B 2.9 00:11:47 52° NW 00:11:47 52° NW 00:16:47 10° NNE
Terra 4.0 00:19:09 19° WNW 00:19:09 19° WNW 00:21:34 10° NW
Cosmos 2034 Rocket 4.3 00:29:33 61° NNW 00:29:33 61° NNW 00:34:38 10° N
Cosmos 1844 Rocket 3.8 00:23:24 10° NNW 00:27:35 39° NNE 00:27:35 39° NNE
Cosmos 2360 Rocket 3.2 00:32:37 41° NNE 00:32:37 41° NNE 00:36:13 10° NNE
CZ-2C R/B 4.4 00:31:30 10° NNE 00:34:11 24° NE 00:34:11 24° NE
Cosmos 1092 Rocket 4.4 00:39:46 10° N 00:44:55 61° N 00:44:55 61° N
ATLAS 3B R/B 4.4 00:53:16 24° E 00:53:16 24° E 00:57:02 10° NE
Cosmos 2219 Rocket 4.0 00:55:54 22° ENE 00:55:54 22° ENE 00:58:09 10° NE
Cosmos 2263 Rocket 4.1 00:54:01 10° NW 00:56:22 20° WNW 00:56:22 20° WNW
Cosmos 2333 Rocket 4.1 01:03:46 22° ENE 01:03:46 22° ENE 01:06:13 10° NE
Cosmos 2322 Rocket 4.0 01:00:20 23° WNW 01:01:24 24° NW 01:05:54 10° N
Cosmos 2237 Rocket 4.1 01:10:34 22° ENE 01:10:34 22° ENE 01:12:58 10° NE
COSMOS 2428 3.7 01:19:05 43° NNE 01:19:05 43° NNE 01:22:51 10° NNE
ATLAS CENTAUR R/B 4.4 01:19:54 57° SW 01:22:59 88° NW 01:52:31 10° NE
Lacrosse 4 Rocket 3.9 01:35:57 22° N 01:35:57 22° N 01:37:45 10° NNE
Cosmos 2278 Rocket 3.2 01:34:50 10° NNW 01:38:34 42° NNW 01:38:34 42° NNW
COSMOS 2455 3.3 02:11:16 58° NNE 02:11:16 58° NNE 02:16:03 10° NNE
Cosmos 2360 Rocket 4.2 02:14:22 17° WNW 02:15:20 18° NW 02:19:11 10° N
CZ-2C R/B 3.9 02:11:43 10° N 02:15:42 35° NW 02:15:42 35° NW
NOSS 0 Rocket 4.2 02:24:23 60° NNW 02:24:23 60° NNW 02:29:46 10° NNE
CZ-4C R/B 3.5 02:28:47 32° E 02:28:47 32° E 02:32:50 10° NE
Cosmos 2219 Rocket 3.2 02:37:37 37° NW 02:37:37 37° NW 02:42:14 10° NNE
NPP 4.5 02:33:00 10° NNE 02:37:35 44° E 02:37:35 44° E
ATLAS 3B R/B 2.8 02:40:31 71° W 02:41:09 75° NW 02:48:36 10° NE
Cosmos 2333 Rocket 3.0 02:45:46 43° NW 02:45:46 43° NW 02:50:48 10° NNE
SL-16 R/B 2.5 02:46:25 66° NE 02:46:25 66° NE 02:51:19 10° NNE
Nadezhda 2 Rocket 4.5 02:40:59 10° N 02:47:07 81° NNW 02:47:07 81° NNW
Cosmos 2228 Rocket 4.4 02:50:22 38° N 02:50:22 38° N 02:53:13 10° N
Cosmos 2237 Rocket 3.0 02:52:23 43° NW 02:52:23 43° NW 02:57:23 10° NNE
SL-16 R/B 3.9 02:49:19 15° ESE 02:53:39 35° ENE 02:59:10 10° N
Cosmos 1932 4.4 02:55:51 78° NW 02:55:51 78° NW 03:02:06 10° NNE
Cosmos 1867 3.9 02:58:54 61° ENE 02:58:54 61° ENE 03:03:37 10° NE
Resurs 1-4 Rocket 3.8 03:01:43 10° NE 03:05:58 24° E 03:07:28 21° ESE
Cosmos 1269 Rocket 4.2 03:07:21 69° ENE 03:07:21 69° ENE 03:12:09 10° NNE
ARIANE 5 R/B 3.8 03:05:00 10° NNE 03:09:41 32° E 03:10:37 30° ESE
Cosmos 1244 Rocket 4.4 03:06:10 10° N 03:12:28 76° W 03:12:34 76° WSW
Cosmos 1553 Rocket 4.1 03:18:01 59° SSE 03:19:02 70° E 03:25:09 10° NNE
ERS-2 4.0 03:15:48 10° NNE 03:18:17 29° ENE 03:18:17 29° ENE
Cosmos 1745 Rocket 4.2 03:14:21 10° N 03:20:44 71° E 03:22:44 45° SSE
Cosmos 1603 3.7 03:27:28 65° SSE 03:27:59 70° ESE 03:33:42 10° NNE
USA 234 3.3 03:22:14 10° NE 03:28:43 62° SE 03:29:55 53° S
ATLAS 5 CENTAUR R/B 4.3 03:27:55 11° SE 03:29:31 12° ESE 03:31:34 10° E
USA 238 DEB 3.7 03:28:04 57° WSW 03:29:31 74° NW 03:36:37 10° NE
USA 238 3.7 03:28:10 58° WSW 03:29:37 74° NW 03:36:43 10° NE
Cosmos 1417 Rocket 4.4 03:30:26 66° SW 03:31:14 75° W 03:37:38 10° N
Aureole 2 Rocket 4.4 03:32:52 28° NNW 03:32:52 28° NNW 03:35:31 10° N
Cosmos 1356 Rocket 4.2 03:29:20 10° N 03:33:16 46° ENE 03:33:17 46° ENE
SL-08 R/B 4.3 03:27:26 10° N 03:33:34 82° W 03:34:32 64° SSW
Meteor 2-3 Rocket 4.3 03:28:38 10° N 03:34:18 55° ENE 03:37:45 24° SE
In-Cosmos 22 Rocket 4.4 03:29:41 10° N 03:34:59 63° ENE 03:36:46 40° SE
ERBS 4.1 03:36:28 33° NE 03:36:28 33° NE 03:38:33 10° NE
SeaSat 1 3.9 03:32:16 10° ESE 03:36:45 36° NE 03:41:16 10° NNW
ATLAS CENTAUR R/B 2.6 03:34:26 10° NNW 03:38:43 43° NE 03:42:37 10° ESE
Cosmos 158 Rocket 3.9 03:41:36 69° SSE 03:42:02 75° ESE 03:47:03 10° NNE
Cosmos 2251 Rocket 4.2 03:41:11 41° SE 03:42:24 49° ESE 03:47:28 10° NNE
NOSS 3-2 (A) 3.5 03:44:53 52° S 03:46:23 71° ESE 03:53:02 10° NE
Cosmos 1892 4.4 03:43:08 10° N 03:46:36 31° ENE 03:48:18 22° ESE
Cosmos 1110 Rocket 4.1 03:41:54 10° NNW 03:47:08 75° ENE 03:49:49 29° SSE
IRS-1C 4.1 03:42:47 10° N 03:48:05 65° WNW 03:48:35 61° WSW
CBERS-1 4.3 03:45:57 10° N 03:50:53 48° WNW 03:51:01 48° WNW
NOSS 3-3 (A) 4.3 03:46:25 10° NW 03:53:51 84° SW 04:01:47 10° SSE
NOSS 3-3 (C) 4.3 03:46:31 10° NW 03:53:57 84° SW 04:01:54 10° SSE
Cosmos 1707 Rocket 3.5 03:59:34 72° S 04:00:01 86° ESE 04:04:32 10° N
Cosmos 1943 3.7 03:57:59 35° SSE 04:00:06 55° ESE 04:05:37 10° NNE
Cosmos 1607 4.5 03:59:12 37° W 04:00:58 46° NW 04:06:53 10° NNE
NOSS 3-2 (C) 3.6 03:59:50 44° SSW 04:01:56 73° ESE 04:08:36 10° NE
CZ-2D R/B 2.1 03:59:36 10° NNE 04:04:55 76° ESE 04:06:51 40° S
Cosmos 1300 3.2 04:08:26 47° NW 04:08:26 47° NW 04:11:38 10° N
Cosmos 883 Rocket 4.4 04:04:59 34° S 04:07:52 85° E 04:14:02 10° N
CENTAUR R/B 4.3 04:04:39 10° SSE 04:09:19 23° ESE 04:14:23 10° ENE
Cosmos 1726 2.5 04:09:57 54° NW 04:09:57 54° NW 04:13:11 10° N
Cosmos 2369 Rocket 2.1 04:04:18 10° NNW 04:09:57 89° ENE 04:15:34 10° SSE
Cosmos 839 Rocket 4.3 04:01:44 10° NW 04:10:11 75° WSW 04:16:52 10° SSE
Cosmos 1151 Rocket 4.4 04:13:00 26° WNW 04:13:00 26° WNW 04:16:13 10° NNW
Cosmos 2315 Rocket 4.2 04:10:59 21° S 04:15:13 70° E 04:21:28 10° NNE
CZ-4C R/B 2.9 04:13:58 33° W 04:15:52 45° NW 04:21:48 10° NNE
Okean O Rocket 3.1 04:12:43 10° NNE 04:16:48 34° E 04:20:18 13° SSE
Cosmos 1455 3.0 04:19:26 27° SSE 04:21:13 48° E 04:25:01 10° NNE
ARGOS Delta rocket 4.4 04:19:32 10° NNE 04:23:52 49° E 04:26:51 18° SSE
Cosmos 1271 Rocket 3.7 04:25:24 34° WNW 04:25:24 34° WNW 04:28:57 10° N
Cosmos 1340 Rocket 4.4 04:22:40 10° NNW 04:24:42 22° WNW 04:24:42 22° WNW
SL-16 R/B 3.9 04:28:18 17° WNW 04:30:26 20° NW 04:34:34 10° N
Abrixas rocket 3.1 04:30:26 35° NW 04:31:18 44° N 04:34:33 10° ENE
Cosmos 494 Rocket 3.9 04:29:15 34° SSW 04:31:39 85° WNW 04:36:57 10° NNE
MTI 3.7 04:31:15 49° S 04:32:04 86° WSW 04:35:26 10° NNW
ATLAS 3B R/B 4.3 04:27:45 13° W 04:33:07 26° NNW 04:39:06 10° NNE
IRS-1D 3.9 04:30:10 10° N 04:35:09 49° WNW 04:37:10 33° SW
ADEOS 4.5 04:30:53 10° N 04:35:29 32° WNW 04:36:56 27° W
CZ-2C R/B 3.9 04:32:41 10° SSE 04:37:06 68° ENE 04:41:31 10° N
SL-16 R/B 2.9 04:34:24 28° SSW 04:37:09 42° W 04:43:02 10° NNW
Cosmos 1302 Rocket 3.9 04:32:44 10° NNW 04:38:00 78° WSW 04:43:12 10° SSE
Cosmos 2292 Rocket 2.6 04:35:17 10° NNW 04:38:11 62° W 04:38:11 62° W
Cosmos 2263 4.1 04:33:27 10° NNW 04:39:15 75° WSW 04:45:01 10° SSE
CZ-2D R/B 3.5 04:35:15 10° NNE 04:39:42 88° WNW 04:42:05 27° SSW
CZ-3A R/B 4.5 04:32:24 25° SW 04:40:08 89° NW 06:27:55 10° ENE
Cosmos 1943 Rocket 2.5 04:34:58 10° NNW 04:40:39 70° ENE 04:46:17 10° SSE
Cosmos 389 Rocket 3.7 04:39:51 14° SSE 04:42:29 40° E 04:45:48 10° NNE
Resurs 1-4 Rocket 2.4 04:41:00 10° N 04:46:03 47° WNW 04:48:33 27° SW
MOZ.5/SAFIR/RUBIN 5/SL-8 3.7 04:42:59 10° SSE 04:47:37 89° W 04:52:18 10° NNW
ARIANE 5 R/B 3.3 04:44:04 10° N 04:48:48 36° WNW 04:50:57 25° WSW
CZ-4B R/B 3.6 04:46:26 10° NNE 04:49:57 46° E 04:53:32 10° S
PSLV R/B 3.9 04:50:52 36° SSW 04:51:31 40° S 04:54:45 10° ESE
ERS-2 3.8 04:50:06 10° NNW 04:52:47 19° WNW 04:53:07 19° WNW
Cosmos 2242 Rocket 4.0 04:51:13 28° SW 04:53:14 47° WNW 04:57:40 10° N
MOS 1-B 4.5 04:49:26 10° N 04:55:09 60° WNW 04:59:12 19° SW
Meteor 2-11 Rocket 4.4 04:50:17 16° SSW 04:55:12 71° W 05:01:18 10° N
UNKNOWN OBJECT B 3.3 04:54:26 10° N 04:57:53 37° WNW 04:59:08 28° WSW
EO 1 Del DPAF 4.2 04:58:33 27° WSW 04:59:01 28° W 05:02:25 10° NW
Cosmos 1825 3.1 04:55:23 10° N 04:59:07 50° ENE 05:02:47 10° SSE
Cosmos 1933 4.1 04:59:11 10° S 05:03:11 53° E 05:07:13 10° NNE
Cosmos 1869 3.2 05:00:55 18° SSW 05:03:45 70° W 05:07:44 10° N
ADEOS II 3.6 04:59:15 10° NNE 05:04:05 36° E 05:08:54 10° SSE
Cosmos 1408 3.3 05:00:44 10° N 05:04:26 57° E 05:08:07 10° SSE
Cosmos 1184 Rocket 2.9 05:03:21 10° NNW 05:06:44 55° W 05:10:05 10° S
Cosmos 1709 Rocket 4.5 05:02:01 10° NNW 05:07:53 40° W 05:13:40 10° SSW
Cosmos 1862 Rocket 3.5 05:05:10 15° SSW 05:08:39 64° W 05:13:02 10° N
Nadezhda 1 Rocket 4.5 05:02:48 10° S 05:08:57 64° E 05:15:14 10° NNE
Cosmos 724 4.4 05:06:25 19° SW 05:10:43 67° NW 05:16:46 10° NNE
USA 234 3.8 05:05:21 10° NE 05:11:39 51° NNW 05:17:15 13° W
ERBS 4.4 05:09:55 12° WNW 05:12:14 20° NNW 05:14:55 10° NNE
ATLAS 5 CENTAUR R/B 1.9 05:09:30 17° SW 05:13:15 89° SE 05:18:34 10° NE
SeaSat 1 3.0 05:09:47 10° S 05:14:16 35° WSW 05:18:47 10° NW
Cosmos 1656 Rocket 4.1 05:10:49 10° NNW 05:16:14 64° ENE 05:21:35 10° SE
Pageos (A) 3.0 05:14:55 10° NNW 05:17:06 49° W 05:18:30 17° SSW
Thor Agena Rocket 3.5 05:12:16 10° SSE 05:17:23 79° WSW 05:22:37 10° NNW
ATLAS CENTAUR R/B 2.5 05:14:08 10° WNW 05:17:28 22° WSW 05:20:35 10° SSW
BREEZE-M DEB (TANK) 1.9 05:19:53 17° WNW 05:21:26 50° SSW 05:23:57 10° SE
IRS-1C Rocket 4.2 05:16:44 10° N 05:21:54 57° WNW 05:27:03 10° SSW
Cosmos 1892 4.2 05:19:25 10° NW 05:22:11 19° W 05:23:20 17° WSW
Cosmos 2074 Rocket 4.0 05:23:14 10° NNW 05:29:20 61° W 05:35:27 10° S
Cosmos 2154 Rocket 4.4 05:23:03 10° N 05:29:22 70° E 05:35:41 10° SSE
Okean 1-7 3.9 05:25:41 10° S 05:29:51 52° E 05:34:04 10° NNE
USA 32 4.1 05:24:48 10° S 05:30:03 89° E 05:35:20 10° N
Cosmos 2184 Rocket 4.1 05:24:47 10° NNW 05:31:05 62° W 05:37:20 10° S
Cosmos 1733 Rocket 4.1 05:30:44 10° NNW 05:34:19 25° W 05:37:54 10° SW
Cosmos 1992 Rocket 3.9 05:30:44 10° NNW 05:35:59 77° WSW 05:41:12 10° SSE
COSMOS 2406 3.4 05:31:17 10° SSW 05:37:03 80° ESE 05:42:50 10° NNE
SL-27 R/B 2.5 05:34:02 10° SSW 05:37:41 70° WNW 05:41:20 10° NNE
Cosmos 1782 Rocket 3.5 05:36:04 10° N 05:40:27 80° W 05:44:46 10° S
CZ-2D R/B 3.8 05:41:05 10° NNW 05:44:21 17° WNW 05:47:38 10° W
USA 129 1.8 05:44:32 19° W 05:44:32 19° W 05:45:23 10° NW
Cosmos 1943 4.4 05:39:49 10° WSW 05:44:29 27° NW 05:49:15 10° N
Cosmos 2341 Rocket 4.3 05:41:09 10° N 05:47:27 75° E 05:53:45 10° SSE
CZ-4B DEB 4.5 05:42:43 10° N 05:48:01 50° WNW 05:53:15 10° SW
MOS 1 Rocket 4.5 05:45:42 10° NNE 05:49:49 42° E 05:53:52 10° S
Okean O Rocket 2.8 05:49:20 10° N 05:53:03 26° WNW 05:56:44 10° WSW
Cosmos 2369 Rocket 3.8 05:50:32 10° WNW 05:53:07 13° W 05:55:42 10° SW
CZ-4B R/B 3.7 05:48:22 10° N 05:53:20 41° WNW 05:58:15 10° SW
Okean-O 2.6 05:50:16 10° N 05:54:42 71° WNW 05:59:06 10° SSW
CZ-3A R/B 4.2 05:52:21 10° NW 05:56:14 28° NNE 06:00:34 10° ENE
ADEOS Rocket 3.7 05:49:13 10° NNE 05:56:54 78° WNW 06:04:40 10° SSW
Cosmos 1455 4.2 05:55:13 10° W 05:57:16 14° WNW 05:59:19 10° NW
Cosmos 2221 Rocket 3.7 05:53:03 10° SSW 05:57:24 55° WNW 06:01:47 10° N
CENTAUR R/B 2.7 05:52:59 10° SW 05:59:10 72° NW 06:06:13 10° NE
Cosmos 2285 Rocket 4.3 05:53:36 10° NNW 05:59:45 49° WSW 06:05:50 10° S
Cosmos 1908 Rocket 4.5 05:57:20 10° NNW 06:01:07 29° W 06:04:51 10° SSW
Aureole 3 Rocket 4.0 05:55:30 10° SSW 06:02:44 62° W 06:07:51 10° N
